Location: *
(32.8140°S, 174.6161°E)
Time: 07:40:16
(UTC+00:00)

COSMOS 2455 - Pass Details

Date: 10 December 2019
Orbit: 903 x 907 km, 67.1° (Epoch: 29 January)

Event Time Altitude Azimuth Distance (km) Brightness Sun altitude
Exits shadow 15:05:00 40° 310° (NW) 1,313 3.2 -21.0°
Maximum altitude 15:07:09 66° 243° (WSW) 991 2.9 -20.7°
Drops below altitude 10° 15:13:11 10° 161° (SSE) 2,610 6.2 -19.8°
Sets 15:15:44 0° 157° (SSE) 3,556 7.2 -19.4°
